Regional Weather Roundup
Issued by NWS Portland, ME

Current Version | Previous Version | Text Only | Print | Product List | Glossary Off
Versions: 1 2 3 4 5 6 7 8 9 10 11 12 13 14 15 16 17 18 19 20 21 22 23 24 25 26 27 28 29 30 31 32 33 34 35 36 37 38 39 40 41 42 43 44 45 46 47 48 49 50
294 ASUS41 KGYX 181410 RWRGYX WEATHER ROUNDUP FOR MAINE AND NEW HAMPSHIRE NATIONAL WEATHER SERVICE GRAY ME 900 AM EST SUN FEB 18 2018 MEZ002-005-006-010-012-015-018-020-021-024-026-027-029-181500- MAINE CITY SKY/WX TMP DP RH WIND PRES REMARKS PORTLAND FAIR 32 28 85 NW8 30.04R SANFORD LGT RAIN 33 26 75 NW6 30.06R BAR HARBOR LGT SNOW 31 30 96 N8G18 30.00R FOG WISCASSET FAIR 31 29 92 VRB3 30.05R ROCKLAND FLURRIES 31 30 96 VRB7 30.01R FRYEBURG FAIR 30 28 92 CALM 30.05R LEWISTONAUBURN FAIR 31 27 85 NW7 30.05R AUGUSTA MIX PCPN 27 24 89 NW8 30.04R WATERVILLE FAIR 29 26 89 N7 29.99R BANGOR LGT SNOW 27 25 92 NW6 30.04R FOG GREENVILLE N/A 23 20 88 NW10 29.94R WCI 12 MILLINOCKET CLOUDY 23 20 88 NW3 30.04R HOULTON LGT SNOW 21 19 92 N3 30.01R VSB 1 PRESQUE ISLE FAIR 25 20 81 CALM 30.02R FRENCHVILLE FAIR 18 15 88 S6 29.97R CARIBOU FAIR 20 15 81 CALM 30.00R $$ NHZ002-005-008-009-011-012-014-181500- NEW HAMPSHIRE CITY SKY/WX TMP DP RH WIND PRES REMARKS PORTSMOUTH MOSUNNY 32 28 86 NW14 30.05R ROCHESTER FAIR 31 27 85 NW15 30.05R MANCHESTER FAIR 32 26 78 NW7 30.10R CONCORD FAIR 31 26 82 NW10 30.10R LACONIA FAIR 34 26 72 VRB6 30.09R PLYMOUTH CLOUDY 30 25 81 W7 30.11R BERLIN LGT SNOW 28 22 78 VRB7 30.03R WHITEFIELD PTSUNNY 28 23 81 W9 30.08R JAFFREY FLURRIES 33 25 72 NW10G20 30.09R KEENE PTSUNNY 30 29 96 NW9 30.13R LEBANON CLOUDY 31 26 82 NW7 30.13R MT WASHINGTON SNOW 7 7 100 W62G70 N/A VSB 0 WCI -24 $$ VTZ005-007-008-181500- VERMONT CITY SKY/WX TMP DP RH WIND PRES REMARKS ST JOHNSBURY N/A 29 23 78 MISG 30.10R MONTPELIER CLOUDY 27 23 85 NW7 30.16R BURLINGTON CLOUDY 32 22 66 W6 30.18R $$ MAZ007-012-024-CTZ003-RIZ002-NYZ038-NYZ072-181500- SOUTHERN NEW ENGLAND AND NY CITY SKY/WX TMP DP RH WIND PRES REMARKS BOSTON FAIR 34 29 82 NW15G26 30.08R WORCESTER FAIR 31 24 75 NW15G26 30.07R NANTUCKET PTSUNNY 37 35 92 NW23G33 30.03R PROVIDENCE FAIR 36 29 75 NW12G24 30.11R HARTFORD PTSUNNY 34 22 61 NW14G24 30.16R ALBANY PTSUNNY 33 23 66 NW8 30.23R NEW YORK CITY FAIR 38 23 55 N18G26 30.21R $$ ANZ081-ANZ082-ANZ150-NHZ014-MEZ023>029-181500- COASTAL MARINE OBSERVATIONS STATION/POSITION TIME TEMP WIND PRES WAVE AIR SEA DIR/SP/G HT/PER (UTC) (F) (DEG/KT/KT) (MB) (FT/S) MOUNT DESERT ROC 1400 33 310/ 6/ 7 1015.2R MATINICUS ROCK 1400 32 340/ 24/ 26 1015.2R ISLE OF SHOALS 1400 32 310/ 22/ 24 1017.4R JEFFREYS LEDGE 1336 41 N/A 7/ 7 GEORGES BANK BUO 1250 33 43 1025.9 9/ 9 $$ .............KEY.............. WCI - WIND CHILL TC - TEMPERATURE IN CELSIUS VSB - VISIBILITY IN MILES HX - HEAT INDEX FAIR- INDICATES FEW OR NO CLOUDS BELOW 12,000 FT, WITH NO SIGNIFICANT WEATHER AND/OR OBSTRUCTIONS TO VISIBILITY.

USA.gov is the U.S. government's official web portal to all federal, state and local government web resources and services.